This is the latest recevied weather packets stored in our database for station/object PD2BVG. If no packets are shown the sender has not sent any weather packets the latest 1 day(s).
| Time | Temp. | Humidity | Pressure | Rain* | Wind** | Luminosity | Snow |
|---|---|---|---|---|---|---|---|
| 1778033161 | 10° C | 80% | 1010.1 hPa | 0 mm | 3.13 m/s, 0° | 0 W/m² | - |
| 1778033102 | 10° C | 80% | 1010.1 hPa | 0 mm | 3.58 m/s, 336° | 0 W/m² | - |
| 1778033039 | 10° C | 80% | 1010.2 hPa | 0 mm | 3.58 m/s, 350° | 0 W/m² | - |
| 1778032978 | 10° C | 80% | 1010.2 hPa | 0 mm | 3.58 m/s, 333° | 0 W/m² | - |
| 1778032917 | 10° C | 80% | 1010.2 hPa | 0 mm | 3.13 m/s, 319° | 0 W/m² | - |
| 1778032857 | 10° C | 80% | 1010.2 hPa | 0 mm | 2.68 m/s, 321° | 0 W/m² | - |
| 1778032791 | 10° C | 81% | 1010.1 hPa | 0 mm | 3.13 m/s, 345° | 0 W/m² | - |
| 1778032731 | 10° C | 81% | 1010.2 hPa | 0 mm | 3.13 m/s, 343° | 0 W/m² | - |
| 1778032670 | 10° C | 81% | 1010.1 hPa | 0 mm | 2.68 m/s, 326° | 0 W/m² | - |
| 1778032610 | 10° C | 81% | 1010.1 hPa | 0 mm | 2.68 m/s, 337° | 0 W/m² | - |
| 1778032547 | 10° C | 81% | 1010.2 hPa | 0 mm | 3.13 m/s, 340° | 0 W/m² | - |
| 1778032485 | 10° C | 81% | 1010.2 hPa | 0 mm | 3.58 m/s, 341° | 0 W/m² | - |
| 1778032422 | 10° C | 81% | 1010.2 hPa | 0 mm | 3.13 m/s, 3° | 0 W/m² | - |
| 1778032373 | 10° C | 81% | 1010.2 hPa | 0 mm | 3.13 m/s, 353° | 0 W/m² | - |
| 1778032301 | 10° C | 81% | 1010.3 hPa | 0 mm | 3.13 m/s, 336° | 0 W/m² | - |
| 1778032240 | 10° C | 81% | 1010.3 hPa | 0 mm | 3.13 m/s, 353° | 0 W/m² | - |
| 1778032177 | 10° C | 81% | 1010.2 hPa | 0 mm | 3.13 m/s, 0° | 0 W/m² | - |
| 1778032117 | 10° C | 81% | 1010.2 hPa | 0 mm | 3.58 m/s, 0° | 0 W/m² | - |
| 1778032057 | 10° C | 81% | 1010.2 hPa | 0 mm | 2.68 m/s, 336° | 0 W/m² | - |
| 1778031999 | 10° C | 81% | 1010.2 hPa | 0 mm | 2.24 m/s, 347° | 0 W/m² | - |
| 1778031937 | 10° C | 81% | 1010.2 hPa | 0 mm | 2.68 m/s, 0° | 0 W/m² | - |
| 1778031874 | 10° C | 81% | 1010.2 hPa | 0 mm | 2.24 m/s, 0° | 0 W/m² | - |
| 1778031814 | 10° C | 81% | 1010.2 hPa | 0 mm | 2.68 m/s, 313° | 0 W/m² | - |
| 1778031754 | 10° C | 81% | 1010.2 hPa | 0 mm | 3.13 m/s, 341° | 0 W/m² | - |
| 1778031694 | 10° C | 81% | 1010.2 hPa | 0 mm | 3.58 m/s, 348° | 0 W/m² | - |
* Rain latest hour (hover to see other rain measurements)
** Current wind speed in m/s (hover to see current wind gust speed)